Showing default

COSMOS 2257, 22692

Orbit data source: Space-Track

COSMOS 2257, 22692 is a payload satellite owned by VKS (CIS) in LEO that was launched on Thu, 24 Jun 1993 UTC via a TSIKLON-3 launch vehicle from the Plesetsk Missile And Space Complex (PKMTR). Payload-class satellites include a variety of spacecraft equipped with specific instruments for various scientific and technological missions. These include communications satellites like Starlink; space stations such as the ISS; scientific satellites like the Hubble; Earth observation satellites from companies like Planet Labs, Umbra, and HawkEye 360; GPS; miniature CubeSats for education and research; and military/defense satellites.

Loading next visibility...
Identifier
22692, 1993-038F
Orbit
LEO
Country
Flag of CISCIS
Related business
Manufacturer
NPO PM
Mission
Defense Communications
Bus & Motor
STRELA-3, Unknown motor
Mass
225 kg wet, 225 kg dry
Launch date (UTC)
1993-06-24 (33 years ago)
Launch vehicle
TSIKLON-3
Launch site
Plesetsk Missile And Space Complex (PKMTR)
Object type
Payload
Rocket body
Debris
Shape & HBR
Cyl, 0.8 m
Radar Cross Section
1.257 m², Medium (>0.1 m² and < 1m²)

Expand to show TLE details & history
Last TLE update: 12 hours ago

TLE from 12 hours ago
0 COSMOS 2257
1 22692U 93038F   26125.44200758  .00000008  00000-0 -13025-4 0  9994
2 22692  82.5763 265.8917 0009290  91.6904 268.5252 12.62259333514399
Epoch: 2026-05-05T10:36Z
TLE epoch observation values (Epoch: 2026-05-05T10:36:29.454Z)
Latitude
0.00004°
Longitude
-116.54782°
Altitude
1,416.556 km
Speed
7.152 km/s
True Right ascension
17h 43m 34s
True Declination
0° 00' 00"
Sunlit
Object was in full shadow at epoch
Visualization orbit readout
Latitude
Unknown
Longitude
Unknown
Altitude
Unknown
Speed
Unknown
Apparent Right ascension
Unknown
Apparent Declination
Unknown
Sunlit
N/A
Visualization observer readout
Local Sidereal Time
06:58:49
Azimuth
Unknown
Elevation
Unknown
Doppler factor
Unknown
Orbital elements
Apogee altitude
1,418.19 km
Perigee altitude
1,403.718 km
Semi-major axis
7,789.091 km
Eccentricity
0.00093
Inclination
82.5763°
RAAN
265.8917°
Arg. of periapsis
91.6904°
True anomaly
268.41878°
Mean anomaly
268.5252°
Eccentric anomaly
268.47199°
Mean motion
3.15728 °/min
Orbital period
114.02 mins
BSTAR
-0.000013025
Loading maneuver chart data...
Computing Atmospheric mass density...
Loading historical data...
Loading historical data...
Loading historical data...
Loading historical data...
Loading historical data...
Loading historical data...
Loading historical data...

Documentation

Showing up to 5 results
|